Location: Carr Mill
(33.2054°N, 85.9439°W)
Time: 00:08:50
(UTC+00:00)

OAO 2 Rocket - Pass Details

Date: 29 October 2020
Orbit: 676 x 746 km, 35.0° (Epoch: 28 November)

Event Time Altitude Azimuth Distance (km) Brightness Sun altitude
Rises 23:35:33 0° 268° (W) 3,074 8.8 -9.2°
Reaches altitude 10° 23:37:59 10° 270° (W) 2,146 7.4 -9.7°
Maximum altitude 23:42:59 73° 355° (N) 716 3.3 -10.7°
Enters shadow 23:46:56 16° 79° (E) 1,746 4.7 -11.5°
